Tracking 30509 objects as of 21-May-2025
HD Live streaming from Space Station
objects crossing your sky now

COSMOS 2572

Track COSMOS 2572 now!
10-day predictions


NORAD ID: 58435
Int'l Code: 2023-182A
Perigee: 305.4 km
Apogee: 324.3 km
Inclination: 96.7 °
Period: 90.7 minutes
Semi major axis: 6685 km
RCS: Unknown
Launch date: November 25, 2023
Source: Commonwealth of Independent States (former USSR) (CIS)
Launch site: PLESETSK MISSILE AND SPACE COMPLEX (PKMTR)
Your satellite tracking list
Your tracking list is empty




NASA's NSSDC Master Catalog

Two Line Element Set (TLE):
1 58435U 23182A   25141.11307825  .00085279  43891-5  31512-3 0  9997
2 58435  96.6966 246.5339 0014122 200.6464 159.4240 15.88078339 86194
Source of the keplerian elements: AFSPC